"Pseudo-MPEC" for P11XLcY

Created 2024 Sep 21 19:22:03 UT using Find_Orb

Click here for an explanation of pseudo-MPECs

 
 Astrometry: 
     P11XLcY* C2024 09 01.39126521 24 30.942+06 46 16.57   ~91K7 21.75wXNEOCPF51
     P11XLcY  C2024 09 01.41200621 24 31.263+06 46 09.74   ~91K7 21.75wXNEOCPF51
     P11XLcY  C2024 09 01.42401521 24 31.446+06 46 06.38   ~91K7 21.77wXNEOCPF51

Station data:
(F51) Pan-STARRS 1, Haleakala  (N20.707234 W156.255910)  US/Hawaii.
   Observers J. Bulger, T. Lowe, A. Schultz, M. Willman. Measurers K.
   Chambers, S. Chastel, T. de Boer, L. Denneau, J. Fairlamb, H. Flewelling,
   M. Huber, C.-C. Lin, E. Magnier, Y. Ramanjooloo, R. Wainscoat, R. Weryk.
   1.8-m Ritchey-Chrétien + CCD.

Orbital elements:  P11XLcY
   Perihelion 2024 Sep 18.59182 +/- 46.5 TT = 14:12:12 (JD 2460572.09182)
Epoch 2024 Sep  1.0 TT = JDT 2460554.5   Earth MOID: 0.3603   Ma: 0.0592
M 354.97856987 +/- 19               (J2000 ecliptic)             AutoNEOCP
n   0.28544125 +/- 0.266            Peri.  123.41825 +/- 100
a   2.28450204 +/- 1.42             Node   224.87955 +/- 51
e   0.4081421 +/- 0.252             Incl.    6.06102 +/- 4.2
P   3.45293                H 22.14  G  0.15   U 11.9  SR
q 1.35210041 +/- 0.397    Q 3.21690368 +/- 140
From 3 observations 2024 Sept. 1 (47.2 min); mean residual 0".13
Residuals in arcseconds: 
240901 F51  .01-  .09+    240901 F51  .03+  .26-    240901 F51  .02-  .16+    

Ephemerides (geocentric):
Date (UTC) HH   RA             Dec           delta  r     elong  mag " sig PA
---- --------  ------------   ------------  ------ ------ -----  --- --------
2024 09 21 19  21 41 15.384   +04 04 01.69  .39823 1.3524 146.0 21.9  43d  86
2024 09 21 20  21 41 18.513   +04 03 38.25  .39831 1.3524 146.0 21.9  43d  86
2024 09 21 21  21 41 21.646   +04 03 14.82  .39840 1.3525 146.0 21.9  43d  86
2024 09 21 22  21 41 24.783   +04 02 51.38  .39849 1.3525 146.0 21.9  43d  86
2024 09 21 23  21 41 27.924   +04 02 27.95  .39858 1.3525 145.9 21.9  43d  86
2024 09 22 00  21 41 31.069   +04 02 04.51  .39867 1.3525 145.9 21.9  43d  86
2024 09 22 01  21 41 34.219   +04 01 41.07  .39876 1.3525 145.9 21.9  43d  86
2024 09 22 02  21 41 37.373   +04 01 17.63  .39885 1.3525 145.9 21.9  44d  86
2024 09 22 03  21 41 40.532   +04 00 54.19  .39894 1.3525 145.8 21.9  44d  86
2024 09 22 04  21 41 43.694   +04 00 30.75  .39903 1.3525 145.8 21.9  44d  86
2024 09 22 05  21 41 46.861   +04 00 07.31  .39912 1.3525 145.8 21.9  44d  86
2024 09 22 06  21 41 50.032   +03 59 43.87  .39922 1.3525 145.8 21.9  44d  86
2024 09 22 07  21 41 53.207   +03 59 20.42  .39931 1.3526 145.8 21.9  44d  86
2024 09 22 08  21 41 56.386   +03 58 56.98  .39940 1.3526 145.7 21.9  43d  85
2024 09 22 09  21 41 59.570   +03 58 33.54  .39949 1.3526 145.7 21.9  43d  85
2024 09 22 10  21 42 02.758   +03 58 10.10  .39958 1.3526 145.7 21.9  43d  85
2024 09 22 11  21 42 05.950   +03 57 46.65  .39967 1.3526 145.7 21.9  43d  85
2024 09 22 12  21 42 09.146   +03 57 23.21  .39977 1.3526 145.7 21.9  43d  85
2024 09 22 13  21 42 12.346   +03 56 59.77  .39986 1.3526 145.6 21.9  43d  85
2024 09 22 14  21 42 15.551   +03 56 36.32  .39995 1.3526 145.6 21.9  43d  85
2024 09 22 15  21 42 18.760   +03 56 12.88  .40004 1.3526 145.6 22.0  43d  85
2024 09 22 16  21 42 21.973   +03 55 49.44  .40014 1.3526 145.6 22.0  43d  85
2024 09 22 17  21 42 25.190   +03 55 26.00  .40023 1.3527 145.6 22.0  43d  85
2024 09 22 18  21 42 28.412   +03 55 02.56  .40032 1.3527 145.5 22.0  43d  85
2024 09 22 19  21 42 31.637   +03 54 39.12  .40042 1.3527 145.5 22.0  43d  85
2024 09 22 20  21 42 34.867   +03 54 15.68  .40051 1.3527 145.5 22.0  43d  85
2024 09 22 21  21 42 38.101   +03 53 52.24  .40060 1.3527 145.5 22.0  43d  85
2024 09 22 22  21 42 41.340   +03 53 28.80  .40070 1.3527 145.4 22.0  43d  85
2024 09 22 23  21 42 44.582   +03 53 05.36  .40079 1.3527 145.4 22.0  43d  85
2024 09 23 00  21 42 47.829   +03 52 41.92  .40089 1.3527 145.4 22.0  43d  85
2024 09 23 01  21 42 51.080   +03 52 18.49  .40098 1.3528 145.4 22.0  43d  85
2024 09 23 02  21 42 54.335   +03 51 55.05  .40108 1.3528 145.4 22.0  43d  85
2024 09 23 03  21 42 57.594   +03 51 31.62  .40117 1.3528 145.3 22.0  43d  85
2024 09 23 04  21 43 00.857   +03 51 08.19  .40127 1.3528 145.3 22.0  43d  85
2024 09 23 05  21 43 04.125   +03 50 44.76  .40136 1.3528 145.3 22.0  44d  85
2024 09 23 06  21 43 07.397   +03 50 21.33  .40146 1.3528 145.3 22.0  44d  85
2024 09 23 07  21 43 10.673   +03 49 57.90  .40155 1.3528 145.3 22.0  44d  85
2024 09 23 08  21 43 13.953   +03 49 34.47  .40165 1.3528 145.2 22.0  44d  85
2024 09 23 09  21 43 17.237   +03 49 11.05  .40174 1.3529 145.2 22.0  44d  85
2024 09 23 10  21 43 20.526   +03 48 47.63  .40184 1.3529 145.2 22.0  44d  85
2024 09 23 11  21 43 23.818   +03 48 24.20  .40194 1.3529 145.2 22.0  44d  85
2024 09 23 12  21 43 27.115   +03 48 00.79  .40203 1.3529 145.1 22.0  44d  85
2024 09 23 13  21 43 30.416   +03 47 37.37  .40213 1.3529 145.1 22.0  44d  85
2024 09 23 14  21 43 33.721   +03 47 13.95  .40223 1.3529 145.1 22.0  44d  85
2024 09 23 15  21 43 37.031   +03 46 50.54  .40233 1.3529 145.1 22.0  44d  85
2024 09 23 16  21 43 40.344   +03 46 27.13  .40242 1.3529 145.1 22.0  44d  85
2024 09 23 17  21 43 43.662   +03 46 03.72  .40252 1.3530 145.0 22.0  44d  85
2024 09 23 18  21 43 46.984   +03 45 40.31  .40262 1.3530 145.0 22.0  44d  85